Buffalo, NY

3:17 AM EST on December 09, 2019 (GMT -0500)
Buffalo Niagara International

Weather History for KBUF - October, 2019

Change the Weather History Date:

Thursday, October 17, 2019

  Actual Average Record
Temperature  
Mean Temperature 45 °F 50 °F  
Max Temperature 46 °F 59 °F 84 °F (1947)
Min Temperature 43 °F 42 °F 27 °F (1978)
Degree Days  
Heating Degree Days 20 15  
Month to date heating degree days 199 204  
Since 1 July heating degree days 244 366  
Cooling Degree Days 0 0  
Month to date cooling degree days 7 0  
Year to date cooling degree days 604 540  
Moisture  
Dew Point 40 °F    
Average Humidity 83    
Maximum Humidity 96    
Minimum Humidity 70    
Precipitation  
Precipitation 0.12 in 0.10 in 1.50 in (1911)
Month to date precipitation 2.67 2.01  
Year to date precipitation 37.32 31.07  
Snow  
Snow 0.00 in 0.00 in T in (2018)
Month to date snowfall 0.0 0.3  
Since 1 July snowfall 0.0 0.3  
Since 1 September snowfall 0.0 0.3  
Snow Depth 0.00 in    
Sea Level Pressure  
Sea Level Pressure 29.63 in    
Wind  
Wind Speed 15 mph (WNW)    
Max Wind Speed 28 mph    
Max Gust Speed 41 mph    
Visibility 10 miles    
Events Rain    
T = Trace of Precipitation, MM = Missing Value Source: NWS Daily Summary

Daily Weather History Graph

Daily Weather History Graph

Search for Another Location

Airport or City:

Astronomy

Oct. 17, 2019 Rise Set
Actual Time 7:30 AM EDT 6:29 PM EDT
Civil Twilight 7:01 AM EDT 6:58 PM EDT
Nautical Twilight 6:28 AM EDT 7:30 PM EDT
Astronomical Twilight 5:56 AM EDT 8:03 PM EDT
Moon 8:55 PM EDT (10/17) 11:04 AM EDT (10/17)
Length of Visible Light 11h 56m
Length of Day
10h 58m
Waning Gibbous, 87% of the Moon is Illuminated
Oct 17
Waning Gibbous
Oct 21
Last Quarter
Oct 27
New
Nov 4
First Quarter
Nov 12
Full

Hourly Weather History & Observations

Time (EDT) Temp. Windchill Dew Point Humidity Pressure Visibility Wind Dir Wind Speed Gust Speed Precip Events Conditions
12:54 AM 44.1 °F 37.7 °F 41.0 °F 89% 29.47 in 10.0 mi West 12.7 mph 20.7 mph N/A   Overcast
1:54 AM 44.1 °F 38.1 °F 41.0 °F 89% 29.46 in 10.0 mi West 11.5 mph - 0.00 in   Overcast
2:54 AM 44.1 °F 37.7 °F 42.1 °F 93% 29.46 in 8.0 mi West 12.7 mph 21.9 mph 0.00 in Rain Light Rain
3:54 AM 44.1 °F 37.4 °F 41.0 °F 89% 29.45 in 10.0 mi West 13.8 mph 24.2 mph 0.00 in   Overcast
4:54 AM 43.0 °F 35.7 °F 39.9 °F 89% 29.46 in 10.0 mi WNW 15.0 mph - 0.00 in   Overcast
5:54 AM 43.0 °F 35.7 °F 41.0 °F 93% 29.47 in 10.0 mi West 15.0 mph - 0.00 in   Overcast
6:54 AM 45.0 °F 37.9 °F 41.0 °F 86% 29.50 in 10.0 mi NW 16.1 mph 28.8 mph 0.01 in   Overcast
7:54 AM 45.0 °F 37.6 °F 39.9 °F 82% 29.51 in 10.0 mi WNW 17.3 mph 29.9 mph 0.00 in Rain Light Rain
9:54 AM 44.1 °F 37.1 °F 41.0 °F 89% 29.55 in 10.0 mi WNW 15.0 mph 28.8 mph 0.03 in Rain Light Rain
10:54 AM 44.1 °F 36.5 °F 42.1 °F 93% 29.57 in 4.0 mi WNW 17.3 mph 24.2 mph 0.04 in Rain Light Rain
11:47 AM 44.1 °F 36.5 °F 41.0 °F 89% 29.59 in 10.0 mi NW 17.3 mph 27.6 mph 0.01 in Rain Light Rain
11:54 AM 44.1 °F 36.8 °F 42.1 °F 93% 29.61 in 10.0 mi NW 16.1 mph 27.6 mph 0.01 in Rain Light Rain
12:54 PM 44.1 °F 36.8 °F 41.0 °F 89% 29.63 in 10.0 mi NW 16.1 mph 26.5 mph 0.02 in Rain Light Rain
1:54 PM 45.0 °F 38.5 °F 41.0 °F 86% 29.64 in 10.0 mi NW 13.8 mph 27.6 mph 0.00 in Rain Light Rain
2:54 PM 45.0 °F 36.9 °F 39.9 °F 82% 29.66 in 10.0 mi NW 20.7 mph 27.6 mph 0.00 in Rain Light Rain
3:54 PM 46.0 °F 39.3 °F 39.9 °F 79% 29.68 in 10.0 mi WNW 16.1 mph 25.3 mph 0.00 in   Overcast
4:54 PM 45.0 °F 38.9 °F 39.0 °F 80% 29.71 in 10.0 mi WNW 12.7 mph 27.6 mph N/A   Overcast
5:54 PM 44.1 °F 36.8 °F 39.0 °F 82% 29.73 in 10.0 mi WNW 16.1 mph 25.3 mph N/A   Overcast
6:54 PM 44.1 °F 36.5 °F 39.0 °F 82% 29.76 in 10.0 mi NW 17.3 mph 25.3 mph N/A   Overcast
7:54 PM 44.1 °F 37.4 °F 39.0 °F 82% 29.78 in 10.0 mi NW 13.8 mph 29.9 mph N/A   Overcast
8:54 PM 45.0 °F 37.4 °F 39.0 °F 80% 29.80 in 10.0 mi WNW 18.4 mph 28.8 mph N/A   Overcast
9:54 PM 45.0 °F 38.2 °F 37.9 °F 76% 29.82 in 10.0 mi NW 15.0 mph 25.3 mph N/A   Overcast
10:54 PM 44.1 °F 37.1 °F 37.0 °F 76% 29.83 in 10.0 mi NW 15.0 mph - N/A   Overcast
11:26 PM 44.1 °F 36.5 °F 37.0 °F 76% 29.82 in 10.0 mi NW 17.3 mph - N/A   Overcast
11:54 PM 44.1 °F 37.7 °F 36.0 °F 73% 29.84 in 10.0 mi NW 12.7 mph - N/A   Overcast